Tracking 29892 objects as of 21-Nov-2024
HD Live streaming from Space Station
objects crossing your sky now

DELTA 1 DEB

Track DELTA 1 DEB now!
10-day predictions


NORAD ID: 7134
Int'l Code: 1973-086CY
Perigee: 1,447.0 km
Apogee: 1,473.3 km
Inclination: 101.8 °
Period: 114.9 minutes
Semi major axis: 7831 km
RCS: 0.1006 m2 (medium)
Launch date: November 6, 1973
Source: United States (US)
Launch site: AIR FORCE WESTERN TEST RANGE (AFWTR)

Note: This is SATELLITE DEBRIS
Your satellite tracking list
Your tracking list is empty




NASA's NSSDC Master Catalog

Two Line Element Set (TLE):
1 07134U 73086CY  24325.82746022  .00000137  00000-0  11566-2 0  9998
2 07134 101.8420  91.9674 0016745 274.0299 240.8218 12.52747517328262
Source of the keplerian elements: AFSPC